Starlink 32678

operational
NORAD ID: 62309 Int'l Des: 2024-239 Owner: SPXS Country: US Constellation: starlink
LEOCIRCULAR

Über Starlink 32678

Beschreibung wird geladen...

Live-Position

3D-Globus wird geladen...

Nächste Überflüge

Höhenverlauf

Altitude vs Time

uPlot chart will show altitude changes over time

Zweizeiliger Elementsatz

1 62309U 24239J 25308.62333227 .00009286 00000-0 32539-3 0 9996
2 62309 53.1593 42.2045 0000919 96.2097 263.9009 15.30186661 50413
Epoch: 4. Nov. 2025 • Age: 4 hours

Aktueller Status

Höhe 494.1 km
Geschwindigkeit 7.62 km/s
Subsatellitenpunkt -52.61°S, 34.31°W
Startdatum 13. Dez. 2024
Alter 0.8 years
Typ internet

Technische Details

Klassifizierung Payload
Masse 730.00 kg
Trockenmasse 700.00 kg
Gesamtmasse 730.00 kg
Länge 0.30 m
Durchmesser 4.10 m
Spannweite 29.00 m
Form Box + pan
Hersteller SPXS
Bus-Typ Starlink V2M
Phasenstatus In Orbit
Besitzer/Staat SPXS/US

Große Konstellationen

Loading constellations...